Abilene, TX

9:18 AM CDT on October 22, 2017 (GMT -0500)
Abilene Regional

Weather History for KABI - April, 2013

Change the Weather History Date:

Wednesday, April 10, 2013

  Actual Average Record
Temperature  
Mean Temperature 41 °F 63 °F  
Max Temperature 50 °F 76 °F 99 °F (1963)
Min Temperature 31 °F 50 °F 26 °F (1973)
Degree Days  
Heating Degree Days 24 5  
Month to date heating degree days 85 54  
Since 1 July heating degree days 2181 2485  
Cooling Degree Days 0 3  
Month to date cooling degree days 28 22  
Year to date cooling degree days 74 56  
Moisture  
Dew Point 33 °F    
Average Humidity 76    
Maximum Humidity 96    
Minimum Humidity 56    
Precipitation  
Precipitation 1.01 in 0.05 in 1.01 in (2013)
Month to date precipitation 1.33 0.45  
Year to date precipitation 3.83 4.57  
Sea Level Pressure  
Sea Level Pressure 29.95 in    
Wind  
Wind Speed 16 mph (NNW)    
Max Wind Speed 16 mph    
Max Gust Speed 22 mph    
Visibility 8 miles    
Events Rain , Snow , Thunderstorm    
T = Trace of Precipitation, MM = Missing Value Source: NWS Daily Summary

Daily Weather History Graph

Daily Weather History Graph

Search for Another Location

Airport or City:

Trip Planner

Search our weather history database for the weather conditions in past years. The results will help you decide how hot, cold, wet, or windy it might be!

Date:

Astronomy

Apr. 10, 2013 Rise Set
Actual Time 7:15 AM CDT 8:05 PM CDT
Civil Twilight 6:50 AM CDT 8:30 PM CDT
Nautical Twilight 6:20 AM CDT 8:59 PM CDT
Astronomical Twilight 5:50 AM CDT 9:30 PM CDT
Moon 7:14 AM CDT (4/10) 8:38 PM CDT (4/10)
Length of Visible Light 13h 39m
Length of Day
12h 49m
New Moon, 0% of the Moon is Illuminated
Apr 10
New Moon
Apr 18
First Quarter
Apr 25
Full
May 2
Last Quarter
May 9
New

Hourly Weather History & Observations

Time (CDT) Temp. Windchill Dew Point Humidity Pressure Visibility Wind Dir Wind Speed Gust Speed Precip Events Conditions
12:41 AM 37.4 °F 25.4 °F 35.6 °F 93% 29.86 in 3.0 mi North 27.6 mph 33.4 mph 0.00 in Snow Light Snow
12:52 AM 37.9 °F 27.1 °F 36.0 °F 93% 29.83 in 3.0 mi NNW 23.0 mph 31.1 mph 0.00 in Snow Light Snow
1:24 AM 37.4 °F 27.5 °F 35.6 °F 93% 29.87 in 2.5 mi North 18.4 mph - 0.01 in Snow Light Snow
1:33 AM 37.4 °F 27.8 °F 37.4 °F 100% 29.88 in 3.0 mi NNW 17.3 mph - 0.02 in Snow Light Snow
1:52 AM 37.0 °F 25.6 °F 36.0 °F 96% 29.87 in 3.0 mi North 24.2 mph 29.9 mph 0.03 in Rain Rain
2:26 AM 35.6 °F 25.2 °F 35.6 °F 100% 29.85 in 10.0 mi North 18.4 mph 32.2 mph 0.02 in Rain Light Freezing Rain
2:52 AM 35.1 °F 23.5 °F 34.0 °F 96% 29.87 in 8.0 mi NNW 21.9 mph 28.8 mph 0.02 in Rain Light Freezing Rain
3:04 AM 35.6 °F 24.0 °F 33.8 °F 93% 29.90 in 3.0 mi NNW 23.0 mph 29.9 mph 0.07 in Rain Light Freezing Rain
3:23 AM 35.6 °F 25.9 °F 33.8 °F 93% 29.91 in 6.0 mi North 16.1 mph 27.6 mph 0.16 in Snow Light Snow
3:40 AM 35.6 °F 23.7 °F 33.8 °F 93% 29.89 in 8.0 mi North 24.2 mph 29.9 mph 0.19 in Rain Light Freezing Rain
3:52 AM 35.1 °F 23.3 °F 34.0 °F 96% 29.89 in 10.0 mi NNW 23.0 mph - 0.19 in Rain Light Freezing Rain
4:08 AM 33.8 °F 21.6 °F 33.8 °F 100% 29.92 in 6.0 mi North 23.0 mph - 0.05 in Rain Light Freezing Rain
4:16 AM 35.6 °F 24.2 °F 33.8 °F 93% 29.91 in 5.0 mi North 21.9 mph 28.8 mph 0.07 in Rain Light Freezing Rain
4:23 AM 35.6 °F 23.4 °F 33.8 °F 93% 29.92 in 7.0 mi North 25.3 mph 36.8 mph 0.08 in Rain Light Freezing Rain
4:36 AM 33.8 °F 21.0 °F 33.8 °F 100% 29.93 in 9.0 mi NNW 25.3 mph 29.9 mph 0.09 in Rain Light Rain
4:39 AM 33.8 °F 21.9 °F 33.8 °F 100% 29.93 in 10.0 mi North 21.9 mph 29.9 mph 0.09 in Rain Light Freezing Rain
4:52 AM 34.0 °F 21.0 °F 32.0 °F 92% 29.87 in 10.0 mi NNW 26.5 mph 33.4 mph 0.09 in Rain Light Freezing Rain
5:13 AM 33.8 °F 22.5 °F 32.0 °F 93% 29.94 in 6.0 mi NNW 19.6 mph 28.8 mph 0.05 in Rain Light Freezing Rain
5:32 AM 33.8 °F 21.9 °F 32.0 °F 93% 29.94 in 2.5 mi NNW 21.9 mph 28.8 mph 0.21 in Rain Light Freezing Rain
5:39 AM 33.8 °F 22.2 °F 32.0 °F 93% 29.98 in 3.0 mi NNW 20.7 mph - 0.27 in Rain Heavy Rain
5:50 AM 33.8 °F 22.8 °F 32.0 °F 93% 29.98 in 3.0 mi NNW 18.4 mph 25.3 mph 0.38 in Rain , Thunderstorm Light Freezing Rain
5:52 AM 33.1 °F 20.6 °F 32.0 °F 96% 29.92 in 3.0 mi NNW 23.0 mph - 0.40 in Rain , Thunderstorm Light Freezing Rain
6:11 AM 32.0 °F 18.9 °F 30.2 °F 93% 29.98 in 5.0 mi NNW 24.2 mph 31.1 mph 0.19 in Rain , Thunderstorm Light Freezing Rain
6:34 AM 32.0 °F 19.8 °F 30.2 °F 93% 29.96 in 10.0 mi North 20.7 mph 27.6 mph 0.20 in   Overcast
6:43 AM 32.0 °F 19.2 °F 30.2 °F 93% 29.97 in 10.0 mi NNW 23.0 mph 29.9 mph 0.20 in Rain Light Freezing Rain
6:52 AM 32.0 °F 18.4 °F 30.0 °F 92% 29.94 in 10.0 mi NNW 26.5 mph 32.2 mph 0.20 in Rain Light Freezing Rain
7:03 AM 32.0 °F 18.9 °F 30.2 °F 93% 29.96 in 10.0 mi NNW 24.2 mph 28.8 mph 0.00 in Rain Light Freezing Rain
7:43 AM 32.0 °F 18.9 °F 28.4 °F 87% 29.99 in 7.0 mi NNW 24.2 mph - 0.04 in Rain Light Freezing Rain
7:52 AM 32.0 °F 19.8 °F 28.9 °F 88% 29.98 in 9.0 mi NNW 20.7 mph 28.8 mph 0.05 in Rain Light Freezing Rain
8:01 AM 32.0 °F 18.6 °F 28.4 °F 87% 29.99 in 10.0 mi NNW 25.3 mph 32.2 mph 0.00 in   Overcast
8:48 AM 32.0 °F 18.4 °F 28.4 °F 87% 30.00 in 10.0 mi NNW 26.5 mph 31.1 mph 0.03 in Rain Light Freezing Rain
8:52 AM 32.0 °F 19.2 °F 28.0 °F 85% 30.02 in 9.0 mi NNW 23.0 mph 31.1 mph 0.03 in Rain Light Freezing Rain
9:22 AM 32.0 °F 19.2 °F 28.4 °F 87% 30.03 in 10.0 mi NNW 23.0 mph 31.1 mph 0.00 in   Overcast
9:52 AM 33.1 °F 19.8 °F 28.9 °F 85% 30.03 in 10.0 mi NNW 26.5 mph - 0.00 in   Overcast
10:52 AM 35.1 °F - 28.9 °F 78% 30.05 in 10.0 mi North - - N/A   Overcast
11:52 AM 39.0 °F - 30.9 °F 73% 30.03 in 10.0 mi North - - N/A   Overcast
12:38 PM 39.2 °F - 30.2 °F 70% 30.03 in - North - - N/A   Unknown
12:52 PM 39.9 °F - 30.9 °F 70% 30.04 in 10.0 mi North - - N/A   Unknown
1:52 PM 42.1 °F - 30.9 °F 65% 30.02 in 10.0 mi North - - N/A   Overcast
2:52 PM 46.0 °F - 33.1 °F 61% 29.99 in 10.0 mi North - - N/A   Overcast
3:52 PM 46.9 °F - 34.0 °F 61% 29.96 in 10.0 mi North 15.0 mph - N/A   Mostly Cloudy
3:59 PM 48.2 °F - 33.8 °F 58% 29.96 in 10.0 mi North 15.0 mph - N/A   Partly Cloudy
4:52 PM 48.9 °F - 35.1 °F 59% 29.94 in 10.0 mi North 10.4 mph 21.9 mph N/A   Clear
5:52 PM 50.0 °F - 35.1 °F 57% 29.94 in 10.0 mi NNW 13.8 mph - N/A   Clear
6:52 PM 48.9 °F - 34.0 °F 56% 29.94 in 10.0 mi NNW 12.7 mph - N/A   Clear
7:52 PM 46.9 °F - 34.0 °F 61% 29.97 in 10.0 mi North 12.7 mph - N/A   Clear
8:52 PM 45.0 °F 40.1 °F 35.1 °F 68% 29.97 in 10.0 mi North 9.2 mph - N/A   Clear
9:52 PM 43.0 °F 39.5 °F 35.1 °F 74% 29.99 in 10.0 mi NNE 5.8 mph - N/A   Clear
10:52 PM 42.1 °F 40.2 °F 35.1 °F 76% 29.98 in 10.0 mi NNE 3.5 mph - N/A   Clear
11:52 PM 42.1 °F 40.2 °F 34.0 °F 73% 30.01 in 10.0 mi ENE 3.5 mph - N/A   Clear